Weather in Pavlovka

Russia / Republic of Bashkortostan     53°48′45″N   54°00′14″E
temp.,
°C
wind,
m/s
gust,
m/s
humid.,
%
clouds,
%
prec.,
mm/h
press.,
hPa
HPBL,
m
1 march, mon
mon123:00−18nnw359857 0.0 101091
02:00−19nnw369870 0.0 1012100
05:00−20nnw339975 0.0 101447
08:00−18nnw369770 0.0 1015137
11:00−17nw349674 0.1 1017184
14:00−16nw349472 0.0 1018220
17:00−16wnw359681 0.0 1020271
20:00−19nw2310091 0.0 102020
2 march, tue
tue223:00−21w2210090 0.1 102120
02:00−22wsw3310089 0.0 102031
05:00−23sw3410082 0.0 101964
08:00−20ssw51010091 0.0 1016210
11:00−17ssw7129796 0.2 1013303
14:00−12ssw81394100 0.9 1010507
17:00−9ssw81494100 1.6 1007584
20:00−7ssw71593100 0.5 1004546
3 march, wed
wed323:00−4sw81495100 1.4 1002612
02:00−3wsw71296100 0.9 1000515
05:00−3wsw599799 1.3 1001472
08:00−4w4896100 0.3 1001457
11:00−4w5894100 0.4 1002526
14:00−5w469799 0.1 1002327
17:00−6w469796 0.1 1003305
20:00−5wnw4796100 0.2 1003443
4 march, thu
thu423:00−7wnw4897100 0.4 1005253
02:00−10wnw499688 0.1 1005244
05:00−14wnw479891 0.2 1006112
08:00−15w4810097 0.1 1007131
11:00−12wsw599799 0.1 1008271
14:00−9wsw61094100 0.2 1008396
17:00−7sw61193100 0.3 1007563
20:00−7sw81593100 0.3 1005665
5 march, fri
fri523:00−5sw91794100 0.6 1004818
02:00−3sw101795100 1.8 1000987
05:00−2sw121894100 3.2 9991020
08:00−2wsw121895100 1.1 9991038
11:00−2wsw111895100 2.3 10011128
14:00−4w8148083 0.4 1005857
17:00−6w5108753 0.4 1009504
20:00−11w34955 0.0 101249